Date,TemperatureHighF,TemperatureAvgF,TemperatureLowF,DewpointHighF,DewpointAvgF,DewpointLowF,HumidityHigh,HumidityAvg,HumidityLow,PressureMaxIn,PressureMinIn,WindSpeedMaxMPH,WindSpeedAvgMPH,GustSpeedMaxMPH,PrecipitationSumIn
2013-3-1,66.0,63.1,59.2,54.5,49.9,46.4,72,62,53,29.64,29.55,22,6,23,0.00
2013-3-2,66.9,59.3,54.3,47.5,41.4,35.5,66,52,40,29.68,29.60,20,4,22,0.00
2013-3-3,64.6,56.5,51.4,45.3,41.4,39.2,74,58,42,29.79,29.61,21,3,22,0.00
2013-3-4,67.3,56.3,45.3,42.6,37.3,32.3,65,50,34,29.86,29.77,19,4,20,0.00
2013-3-5,75.4,64.2,51.6,56.9,50.5,41.6,73,62,50,29.83,29.73,22,3,22,0.00
2013-3-6,79.2,66.7,55.4,61.4,50.3,33.0,79,58,32,29.75,29.59,25,5,25,0.00
2013-3-7,71.4,60.9,49.6,51.3,43.3,33.7,72,53,39,29.83,29.72,23,5,23,0.00
2013-3-8,75.6,65.0,54.9,52.4,49.7,45.7,73,59,39,29.85,29.75,21,4,23,0.00
2013-3-9,76.5,66.7,57.6,56.7,51.6,47.2,72,59,47,29.84,29.75,15,4,18,0.00
2013-3-10,77.0,71.3,67.1,59.0,54.8,51.1,68,56,47,29.81,29.71,15,7,16,0.00
2013-3-11,81.3,73.4,69.4,61.5,59.0,56.5,68,61,49,29.75,29.60,14,6,17,0.00
2013-3-12,81.5,74.6,71.4,69.0,63.7,59.9,74,69,64,29.65,29.55,19,6,19,0.00
2013-3-13,77.2,68.4,60.4,62.9,54.6,46.2,75,63,41,29.76,29.62,22,6,24,0.00
2013-3-14,73.0,63.1,55.6,50.6,46.4,40.7,70,56,35,29.85,29.73,19,6,19,0.00
2013-3-15,73.8,63.6,54.7,52.7,48.0,42.0,69,57,46,29.89,29.80,22,6,23,0.00
2013-3-16,77.2,67.5,57.2,55.6,52.2,49.0,74,59,44,29.84,29.74,25,3,25,0.00
2013-3-17,78.6,70.2,62.8,60.1,56.7,51.7,73,63,52,29.80,29.67,23,6,31,0.00
2013-3-18,82.8,74.0,69.3,67.5,63.3,58.9,79,70,60,29.72,29.61,25,6,25,0.10
2013-3-19,80.4,74.0,70.3,67.1,65.1,62.6,82,74,60,29.65,29.46,22,7,28,0.02
2013-3-20,83.8,73.8,66.0,69.1,63.5,58.1,80,71,56,29.62,29.45,19,5,28,0.00
2013-3-21,76.6,69.1,62.4,58.8,54.1,49.7,78,60,43,29.60,29.47,19,4,24,0.00
2013-3-22,78.6,69.6,58.8,65.7,57.3,49.5,75,65,54,29.65,29.55,17,4,17,0.00
2013-3-23,86.4,78.6,73.0,73.0,69.2,65.7,80,73,61,29.63,29.44,22,8,25,0.02
2013-3-24,91.6,80.3,-22.0,71.9,68.8,-29.5,81,69,51,29.53,29.32,22,8,29,0.02
2013-3-25,81.3,75.2,67.3,69.1,58.9,42.8,81,59,36,29.63,29.38,22,5,22,0.18
2013-3-26,70.7,63.3,55.8,43.3,38.4,35.2,49,40,29,29.86,29.63,19,5,26,0.00
2013-3-27,70.5,59.1,48.7,46.5,40.4,33.0,59,50,39,29.89,29.81,21,5,21,0.00
2013-3-28,73.2,62.7,52.5,49.4,43.7,36.0,66,51,33,29.91,29.81,22,4,22,0.00
2013-3-29,76.8,66.5,57.4,52.7,47.9,40.9,62,52,42,29.93,29.84,20,5,22,0.00
2013-3-30,77.4,70.8,65.1,53.6,51.2,49.7,59,50,40,29.91,29.81,20,5,25,0.00
2013-3-31,83.1,74.3,68.2,65.8,60.3,52.7,71,62,52,29.83,29.69,23,6,26,0.00